When you browse on this site, cookies collect data to enhance your experience and personalize the content and advertising you see.
Visit our Privacy Policy to learn more. By continuing to use the site, you agree to this use of cookies and data.
  • în România
  • Lista ţărilor
  • Pe 7 zile
  • Temperatura apei
  • Meteo pe hartă
  • Widget-uri
  • user-avatar
    Intrare

    Meteo pe oră la Shusha

    Astăzi, 21 August, Miercuri

    Timp Temperatura Precipitaţii Vânt Presiune Umiditate
    00:00 +20°C° 0 mm 2 m/s 662 mmHg 31%
    01:00 +19°C° 0 mm 2 m/s 662 mmHg 31%
    02:00 +19°C° 0 mm 2 m/s 662 mmHg 31%
    03:00 +19°C° 0 mm 2 m/s 662 mmHg 31%
    04:00 +19°C° 0 mm 2 m/s 662 mmHg 32%
    05:00 +20°C° 0 mm 1 m/s 663 mmHg 33%
    06:00 +20°C° 0 mm 1 m/s 663 mmHg 34%
    07:00 +22°C° 0 mm 1 m/s 663 mmHg 29%
    08:00 +25°C° 0 mm 2 m/s 664 mmHg 25%
    09:00 +27°C° 0 mm 2 m/s 664 mmHg 21%
    10:00 +28°C° 0 mm 2 m/s 664 mmHg 20%
    11:00 +29°C° 0 mm 3 m/s 664 mmHg 19%
    12:00 +31°C° 0 mm 3 m/s 664 mmHg 17%
    13:00 +31°C° 0 mm 3 m/s 663 mmHg 18%
    14:00 +31°C° 0 mm 3 m/s 663 mmHg 18%
    15:00 +31°C° 0 mm 3 m/s 663 mmHg 18%
    16:00 +30°C° 0 mm 3 m/s 662 mmHg 20%
    17:00 +29°C° 0 mm 2 m/s 661 mmHg 22%
    18:00 +27°C° 0 mm 1 m/s 661 mmHg 24%
    19:00 +26°C° 0 mm 1 m/s 661 mmHg 26%
    20:00 +24°C° 0 mm 1 m/s 660 mmHg 28%
    21:00 +22°C° 0 mm 1 m/s 660 mmHg 29%
    22:00 +21°C° 0 mm 2 m/s 660 mmHg 30%
    23:00 +20°C° 0 mm 2 m/s 660 mmHg 30%

    Mâine, 22 August, Joi

    Timp Temperatura Precipitaţii Vânt Presiune Umiditate
    00:00 +20°C° 0 mm 2 m/s 660 mmHg 30%
    01:00 +20°C° 0 mm 2 m/s 660 mmHg 30%
    02:00 +19°C° 0 mm 2 m/s 660 mmHg 30%
    03:00 +19°C° 0 mm 2 m/s 660 mmHg 30%
    04:00 +19°C° 0 mm 2 m/s 660 mmHg 31%
    05:00 +20°C° 0 mm 1 m/s 660 mmHg 32%
    06:00 +20°C° 0 mm 1 m/s 660 mmHg 32%
    07:00 +23°C° 0 mm 1 m/s 660 mmHg 28%
    08:00 +25°C° 0 mm 2 m/s 661 mmHg 24%
    09:00 +27°C° 0 mm 2 m/s 661 mmHg 20%
    10:00 +28°C° 0 mm 2 m/s 661 mmHg 19%
    11:00 +30°C° 0 mm 3 m/s 661 mmHg 18%
    12:00 +31°C° 0 mm 3 m/s 661 mmHg 16%
    13:00 +31°C° 0 mm 3 m/s 661 mmHg 16%
    14:00 +32°C° 0 mm 4 m/s 660 mmHg 16%
    15:00 +32°C° 0 mm 4 m/s 660 mmHg 17%
    16:00 +30°C° 0 mm 3 m/s 659 mmHg 19%
    17:00 +29°C° 0 mm 2 m/s 659 mmHg 21%
    18:00 +27°C° 0 mm 2 m/s 659 mmHg 23%
    19:00 +25°C° 0 mm 2 m/s 659 mmHg 25%
    20:00 +24°C° 0 mm 2 m/s 659 mmHg 27%
    21:00 +22°C° 0 mm 1 m/s 659 mmHg 28%
    22:00 +21°C° 0 mm 1 m/s 659 mmHg 28%
    23:00 +20°C° 0 mm 2 m/s 659 mmHg 27%

    Poimâine, 23 August, Vineri

    Timp Temperatura Precipitaţii Vânt Presiune Umiditate
    00:00 +19°C° 0 mm 2 m/s 659 mmHg 27%
    01:00 +19°C° 0 mm 2 m/s 659 mmHg 27%
    02:00 +19°C° 0 mm 2 m/s 659 mmHg 27%
    03:00 +19°C° 0 mm 2 m/s 659 mmHg 27%
    04:00 +19°C° 0 mm 2 m/s 659 mmHg 29%
    05:00 +19°C° 0 mm 2 m/s 659 mmHg 30%
    06:00 +19°C° 0 mm 2 m/s 659 mmHg 32%
    07:00 +21°C° 0 mm 2 m/s 660 mmHg 29%
    08:00 +24°C° 0 mm 2 m/s 660 mmHg 27%
    09:00 +27°C° 0 mm 2 m/s 661 mmHg 24%
    10:00 +28°C° 0 mm 2 m/s 661 mmHg 23%
    11:00 +29°C° 0 mm 3 m/s 661 mmHg 22%
    12:00 +30°C° 0 mm 3 m/s 661 mmHg 21%
    13:00 +30°C° 0 mm 3 m/s 661 mmHg 21%
    14:00 +31°C° 0 mm 3 m/s 660 mmHg 21%
    15:00 +32°C° 0 mm 4 m/s 660 mmHg 21%
    16:00 +30°C° 0 mm 3 m/s 660 mmHg 24%
    17:00 +29°C° 0 mm 2 m/s 659 mmHg 26%
    18:00 +27°C° 0 mm 1 m/s 659 mmHg 29%
    19:00 +26°C° 0 mm 1 m/s 659 mmHg 31%
    20:00 +24°C° 0 mm 1 m/s 659 mmHg 33%
    21:00 +23°C° 0 mm 2 m/s 659 mmHg 35%
    22:00 +21°C° 0 mm 2 m/s 659 mmHg 35%
    23:00 +21°C° 0 mm 2 m/s 659 mmHg 36%

    24 August, Sâmbătă

    Timp Temperatura Precipitaţii Vânt Presiune Umiditate
    00:00 +20°C° 0 mm 2 m/s 659 mmHg 37%
    01:00 +20°C° 0 mm 2 m/s 659 mmHg 38%
    02:00 +19°C° 0 mm 2 m/s 659 mmHg 38%
    03:00 +19°C° 0 mm 2 m/s 659 mmHg 39%
    04:00 +19°C° 0 mm 2 m/s 659 mmHg 39%
    05:00 +19°C° 0 mm 2 m/s 659 mmHg 40%
    06:00 +19°C° 0 mm 2 m/s 659 mmHg 40%
    07:00 +23°C° 0 mm 2 m/s 660 mmHg 37%
    08:00 +25°C° 0 mm 2 m/s 661 mmHg 33%
    09:00 +27°C° 0 mm 2 m/s 662 mmHg 29%
    10:00 +28°C° 0 mm 3 m/s 662 mmHg 28%
    11:00 +30°C° 0 mm 3 m/s 662 mmHg 26%
    12:00 +31°C° 0 mm 3 m/s 662 mmHg 25%
    13:00 +31°C° 0 mm 3 m/s 662 mmHg 25%
    14:00 +31°C° 0 mm 3 m/s 661 mmHg 25%
    15:00 +32°C° 0 mm 4 m/s 661 mmHg 26%
    16:00 +30°C° 0 mm 3 m/s 661 mmHg 27%
    17:00 +29°C° 0 mm 3 m/s 661 mmHg 27%
    18:00 +28°C° 0 mm 3 m/s 661 mmHg 28%
    19:00 +26°C° 0 mm 3 m/s 661 mmHg 32%
    20:00 +24°C° 0 mm 2 m/s 661 mmHg 35%
    21:00 +22°C° 0 mm 1 m/s 661 mmHg 38%
    22:00 +21°C° 0 mm 1 m/s 661 mmHg 37%
    23:00 +21°C° 0 mm 1 m/s 661 mmHg 36%

    25 August, Duminică

    Timp Temperatura Precipitaţii Vânt Presiune Umiditate
    00:00 +21°C° 0 mm 1 m/s 661 mmHg 35%
    01:00 +20°C° 0 mm 1 m/s 661 mmHg 34%
    02:00 +20°C° 0 mm 1 m/s 661 mmHg 34%
    03:00 +20°C° 0 mm 1 m/s 660 mmHg 33%
    04:00 +20°C° 0 mm 1 m/s 661 mmHg 33%
    05:00 +20°C° 0 mm 1 m/s 661 mmHg 33%
    06:00 +20°C° 0 mm 1 m/s 661 mmHg 33%
    07:00 +22°C° 0 mm 1 m/s 662 mmHg 28%
    08:00 +25°C° 0 mm 2 m/s 662 mmHg 24%
    09:00 +27°C° 0 mm 2 m/s 663 mmHg 19%
    10:00 +28°C° 0 mm 2 m/s 663 mmHg 19%
    11:00 +29°C° 0 mm 3 m/s 663 mmHg 18%
    12:00 +30°C° 0 mm 3 m/s 663 mmHg 18%
    13:00 +30°C° 0 mm 4 m/s 662 mmHg 19%
    14:00 +30°C° 0 mm 4 m/s 662 mmHg 19%
    15:00 +32°C° 0 mm 4 m/s 662 mmHg 20%
    16:00 +29°C° 0 mm 3 m/s 661 mmHg 22%
    17:00 +28°C° 0 mm 3 m/s 661 mmHg 25%
    18:00 +27°C° 0 mm 2 m/s 661 mmHg 27%
    19:00 +25°C° 0 mm 2 m/s 661 mmHg 28%
    20:00 +24°C° 0 mm 2 m/s 661 mmHg 30%
    21:00 +22°C° 0 mm 1 m/s 661 mmHg 31%
    22:00 +22°C° 0.1 mm 1 m/s 661 mmHg 33%
    23:00 +21°C° 0.1 mm 1 m/s 661 mmHg 35%

    26 August, Luni

    Timp Temperatura Precipitaţii Vânt Presiune Umiditate
    00:00 +20°C° 0.1 mm 2 m/s 660 mmHg 36%
    01:00 +20°C° 0 mm 1 m/s 660 mmHg 37%
    02:00 +20°C° 0 mm 1 m/s 660 mmHg 37%
    03:00 +19°C° 0 mm 1 m/s 660 mmHg 38%
    04:00 +19°C° 0 mm 1 m/s 660 mmHg 38%
    05:00 +20°C° 0 mm 1 m/s 660 mmHg 37%
    06:00 +20°C° 0 mm 1 m/s 660 mmHg 37%
    07:00 +22°C° 0 mm 1 m/s 661 mmHg 32%
    08:00 +24°C° 0 mm 2 m/s 661 mmHg 28%
    09:00 +26°C° 0 mm 2 m/s 662 mmHg 23%
    10:00 +27°C° 0 mm 2 m/s 662 mmHg 22%
    11:00 +28°C° 0 mm 3 m/s 662 mmHg 21%
    12:00 +29°C° 0 mm 3 m/s 662 mmHg 19%
    13:00 +30°C° 0 mm 3 m/s 661 mmHg 20%
    14:00 +30°C° 0 mm 3 m/s 661 mmHg 20%
    15:00 +30°C° 0 mm 3 m/s 661 mmHg 20%
    16:00 +28°C° 0 mm 2 m/s 661 mmHg 22%
    17:00 +27°C° 0 mm 2 m/s 661 mmHg 25%
    18:00 +26°C° 0 mm 1 m/s 661 mmHg 27%
    19:00 +24°C° 0 mm 1 m/s 661 mmHg 30%
    20:00 +22°C° 0 mm 1 m/s 661 mmHg 33%
    21:00 +20°C° 0 mm 1 m/s 661 mmHg 36%
    22:00 +20°C° 0 mm 1 m/s 661 mmHg 38%
    23:00 +19°C° 0 mm 1 m/s 661 mmHg 40%
    Arată mai mult